Location: Balaclava NSW 2575, Australia
(34.4510°S, 150.4953°E)
Time: 20:14:26
(UTC+10:00)

Tiros 1 despin weight - Visible Passes

Search period start: 29 July 2021 00:00
Search period end: 08 August 2021 00:00
Orbit: 593 x 642 km, 48.2° (Epoch: 28 July)

Date Brightness Start Highest point End Pass type
(mag) Time Alt. Az. Time Alt. Az. Time Alt. Az.
29 Jul ? 05:05:34 14° S 05:05:34 14° S 05:07:44 10° SSE visible
30 Jul ? 05:21:06 13° SSW 05:22:10 14° S 05:24:31 10° SE visible
31 Jul ? 05:36:37 11° SSW 05:38:59 16° S 05:41:45 10° SE visible
01 Aug ? 04:15:07 10° SSE 04:15:07 10° SSE 04:15:10 10° SSE visible
01 Aug ? 05:52:22 10° SSW 05:55:44 20° SSE 05:59:07 10° ESE visible
02 Aug ? 04:30:40 13° SSE 04:30:40 13° SSE 04:32:09 10° SE visible
02 Aug ? 06:08:23 10° SW 06:12:21 30° SSE 06:16:20 10° E visible
03 Aug ? 04:46:15 17° S 04:46:31 17° SSE 04:49:29 10° SE visible
04 Aug ? 05:01:52 20° S 05:03:13 23° SSE 05:06:49 10° ESE visible
05 Aug ? 05:17:32 22° SSW 05:19:46 36° SSE 05:23:55 10° E visible
06 Aug ? 03:56:12 14° SE 03:56:12 14° SE 03:57:14 10° ESE visible
06 Aug ? 05:33:15 21° SW 05:36:10 66° SE 05:40:37 10° ENE visible
07 Aug ? 04:12:00 23° SE 04:12:00 23° SE 04:14:29 10° E visible
07 Aug ? 05:49:04 17° WSW 05:52:25 61° NW 05:56:50 10° NE visible
